Richard B Russell Airport
KRMG : rendu visible

Aérodrome :











RETROUVEZ-NOUS SUR...

 
LOGIN :

S'inscrire | Disclaimer

   EN    FR    IT 

 









Légende :    VFR   VFR Marginal   IFR   IFR Intensif   IFR Très Intensif
Visi : 
Plafond : 
>= 8 km
>= 3000ft
5 à 8 km
1000 à 3000 ft
1500m à 5 km
500 à 1000 ft
800 à 1500m
200 à 500 ft
< 800m
< 200 ft
Symboles :   Orages  Brouillard  Fortes neiges  Fortes précipitations  Vent > 20 kt






- Altitude de l'aérodrome : 644 ft


KRMG - Richard B Russell

DERNIER METAR :
  • 071853Z AUTO VRB03KT 10SM FEW032 SCT100 30/22 A2997 RMK AO2 SLP139 T03000217

METARs EXPIRÉS :
  • 071753Z AUTO 13004KT 10SM FEW026 BKN070 29/21 A3000 RMK AO2 SLP148 T02940211 10306 20239 58008
  • 071653Z AUTO VRB05KT 10SM BKN047 BKN110 29/21 A3003 RMK AO2 SLP157 T02940211

TAF N/A
FIR KZTL / Amérique du Nord



MET'MAP, la Météo Aéronautique d'un coup d'oeil ! - Copyright ORBIFLY Décembre 2007 - Disclaimer

ORBIFLY MET'MAP TEAM :

Programmation & Développement : Alexandra Zaïnal
Sur une idée originale de : Baudouin d'Aumeries
Assistance à la programmation : Marc-Olivier Méhu
Soutien technique & logistique : Manuel Goepfert

Contact : metmap@orbifly.com




SOURCES & CREDITS :

   NOAA       Earth
Advisory